Location: Newark
(48.6461°N, 4.3644°W)
Time: 15:55:26
(UTC+00:00)

S-56A Canister/Altair - Pass Details

Date: 23 January 2020
Orbit: 633 x 2499 km, 38.9° (Epoch: 17 February)

Event Time Altitude Azimuth Distance (km) Brightness Sun altitude
Rises 23:48:11 0° 255° (WSW) 3,155 - -59.6°
Reaches altitude 10° 23:51:04 10° 241° (WSW) 2,101 - -59.7°
Maximum altitude 23:54:46 24° 188° (S) 1,329 - -59.9°
Drops below altitude 10° 23:58:20 10° 134° (SE) 2,027 - -60.1°
Sets 00:01:04 0° 120° (ESE) 3,015 - -60.2°
